Location: Carri�res
(48.9069°N, 2.1792°E)
Time: 04:51:26
(UTC+00:00)

ERS-2 - Pass Details

Date: 17 January 2021
Orbit: 492 x 497 km, 98.6° (Epoch: 26 February)

Event Time Altitude Azimuth Distance (km) Brightness Sun altitude
Exits shadow 17:11:35 10° 60° (ENE) 1,725 4.2 -7.6°
Reaches altitude 10° 17:11:43 10° 62° (ENE) 1,697 4.1 -7.6°
Maximum altitude 17:13:30 13° 91° (E) 1,506 4.0 -7.9°
Drops below altitude 10° 17:15:16 10° 121° (ESE) 1,688 4.5 -8.1°
Sets 17:18:18 0° 149° (SSE) 2,562 5.6 -8.6°
